Location: Bishop�s Knoyle
(51.0728°N, 2.1714°W)
Time: 03:00:56
(UTC+00:00)

ATLAS CENTAUR R/B - Pass Details

Date: 24 January 2021
Orbit: 475 x 670 km, 64.7° (Epoch: 06 March)

Event Time Altitude Azimuth Distance (km) Brightness Sun altitude
Exits shadow 05:57:04 - 201° (SSW) 2,084 4.1 -18.4°
Reaches altitude 10° 05:58:09 10° 197° (SSW) 1,650 3.7 -18.3°
Maximum altitude 06:01:38 44° 125° (SE) 664 2.1 -17.7°
Drops below altitude 10° 06:05:08 10° 52° (NE) 1,656 4.3 -17.2°
Sets 06:07:20 0° 46° (NE) 2,548 5.2 -16.9°
